Weather History for KAKO - June, 2013

Change the Weather History Date:

Wednesday, June 5, 2013

  Actual Average Record
Temperature  
Mean Temperature 54 °F 64 °F  
Max Temperature 63 °F 77 °F 97 °F (1938)
Min Temperature 44 °F 50 °F 34 °F (1937)
Degree Days  
Heating Degree Days 11    
Month to date heating degree days 23  
Cooling Degree Days 0    
Month to date cooling degree days 6  
Growing Degree Days 3 (Base 50)    
Moisture  
Dew Point 45 °F    
Average Humidity 74    
Maximum Humidity 100    
Minimum Humidity 48    
Precipitation  
Precipitation 0.14 in 0.10 in 1.58 in (1965)
Month to date precipitation 0.20 0.49  
Year to date precipitation 4.09 6.67  
Sea Level Pressure  
Sea Level Pressure 30.15 in    
Wind  
Wind Speed 14 mph (North)    
Max Wind Speed 24 mph    
Max Gust Speed 29 mph    
Visibility 8 miles    
Events Rain    
T = Trace of Precipitation, MM = Missing Value Source: NWS Daily Summary

Daily Weather History Graph

Daily Weather History Graph

Search for Another Location

Airport or City:

Trip Planner

Search our weather history database for the weather conditions in past years. The results will help you decide how hot, cold, wet, or windy it might be!

Date:

Astronomy

Jun. 05, 2013 Rise Set
Actual Time 5:24 AM MDT 8:19 PM MDT
Civil Twilight 4:51 AM MDT 8:51 PM MDT
Nautical Twilight 4:10 AM MDT 9:32 PM MDT
Astronomical Twilight 3:22 AM MDT 10:20 PM MDT
Moon 3:29 AM MDT (6/5) 5:47 PM MDT (6/5)
Length of Visible Light 16h 00m
Length of Day
14h 55m
Waning Crescent, 8% of the Moon is Illuminated
Jun 5
Waning Crescent
Jun 8
New
Jun 16
First Quarter
Jun 23
Full
Jun 29
Last Quarter

Hourly Weather History & Observations

Time (MDT) Temp. Windchill Dew Point Humidity Pressure Visibility Wind Dir Wind Speed Gust Speed Precip Events Conditions
12:20 AM 51.8 °F - 48.2 °F 88% 30.16 in 10.0 mi North 16.1 mph 23.0 mph N/A   Overcast
12:50 AM 50.0 °F - 48.2 °F 94% 30.17 in 10.0 mi North 13.8 mph 24.2 mph N/A   Overcast
12:53 AM 50.0 °F - 48.0 °F 93% 30.06 in 10.0 mi North 13.8 mph - N/A   Overcast
1:51 AM 50.0 °F - 48.2 °F 94% 30.16 in 10.0 mi NNE 21.9 mph 28.8 mph 0.00 in   Overcast
1:53 AM 50.0 °F - 48.0 °F 93% 30.05 in 10.0 mi NNE 19.6 mph 28.8 mph 0.00 in   Overcast
2:06 AM 50.0 °F - 48.2 °F 94% 30.15 in 10.0 mi NE 17.3 mph 24.2 mph N/A   Overcast
2:53 AM 48.9 °F - 46.9 °F 93% 30.04 in 8.0 mi NE 20.7 mph - 0.02 in Rain Light Rain
3:45 AM 48.2 °F - 46.4 °F 93% 30.16 in 6.0 mi NNE 13.8 mph - 0.05 in Rain Light Rain
3:51 AM 48.2 °F - 46.4 °F 93% 30.17 in 6.0 mi NNE 13.8 mph - 0.05 in Rain Light Rain
3:53 AM 48.0 °F - 46.9 °F 96% 30.06 in 6.0 mi NNE 13.8 mph - 0.05 in Rain Light Rain
4:19 AM 48.2 °F - 46.4 °F 93% 30.18 in 4.0 mi North 12.7 mph - 0.01 in   Overcast
4:26 AM 48.2 °F - 46.4 °F 93% 30.18 in 3.0 mi North 11.5 mph - 0.02 in Rain Light Rain
4:35 AM 48.2 °F - 46.4 °F 93% 30.19 in 4.0 mi NNE 13.8 mph - 0.02 in Rain Light Rain
4:43 AM 48.2 °F - 46.4 °F 93% 30.19 in 3.0 mi North 16.1 mph - 0.03 in Rain Light Rain
4:47 AM 48.2 °F - 46.4 °F 93% 30.20 in 2.5 mi North 16.1 mph - 0.04 in Rain Light Rain
4:53 AM 48.0 °F - 46.9 °F 96% 30.09 in 2.5 mi North 17.3 mph - 0.05 in Rain Rain
5:01 AM 44.6 °F 36.1 °F 44.6 °F 100% 30.21 in 4.0 mi North 21.9 mph 27.6 mph 0.01 in Rain Light Rain
5:12 AM 44.6 °F 36.6 °F 42.8 °F 93% 30.21 in 4.0 mi North 19.6 mph - 0.01 in Rain Light Rain
5:23 AM 44.6 °F 37.8 °F 42.8 °F 93% 30.21 in 5.0 mi North 15.0 mph - 0.02 in Rain Light Rain
5:35 AM 44.6 °F 37.8 °F 42.8 °F 93% 30.21 in 7.0 mi North 15.0 mph - 0.02 in Rain Light Rain
5:42 AM 44.6 °F 37.4 °F 44.6 °F 100% 30.21 in 9.0 mi North 16.1 mph - 0.02 in Rain Light Rain
5:49 AM 44.6 °F 37.4 °F 44.6 °F 100% 30.21 in 9.0 mi North 16.1 mph - 0.02 in Rain Light Rain
5:53 AM 45.0 °F 37.9 °F 44.1 °F 97% 30.13 in 10.0 mi North 16.1 mph - 0.02 in Rain Light Rain
6:02 AM 44.6 °F 37.8 °F 44.6 °F 100% 30.22 in 9.0 mi North 15.0 mph - 0.00 in Rain Light Rain
6:53 AM 45.0 °F 38.9 °F 43.0 °F 93% 30.14 in 10.0 mi North 12.7 mph - 0.00 in   Overcast
7:21 AM 44.6 °F 37.8 °F 44.6 °F 100% 30.23 in 10.0 mi North 15.0 mph - N/A   Overcast
7:33 AM 44.6 °F 38.1 °F 44.6 °F 100% 30.23 in 10.0 mi NNW 13.8 mph - N/A   Overcast
7:53 AM 46.0 °F 40.6 °F 44.1 °F 93% 30.15 in 7.0 mi North 11.5 mph - N/A   Overcast
8:02 AM 44.6 °F 38.4 °F 44.6 °F 100% 30.23 in 3.0 mi NNW 12.7 mph - N/A   Overcast
8:50 AM 46.4 °F 40.4 °F 42.8 °F 87% 30.23 in 10.0 mi North 13.8 mph - N/A   Overcast
8:53 AM 46.0 °F 40.6 °F 43.0 °F 89% 30.17 in 10.0 mi North 11.5 mph - N/A   Overcast
9:05 AM 46.4 °F 40.7 °F 42.8 °F 87% 30.23 in 10.0 mi NNW 12.7 mph - N/A   Overcast
9:53 AM 48.0 °F - 39.9 °F 74% 30.18 in 10.0 mi North 11.5 mph - N/A   Overcast
10:53 AM 50.0 °F - 42.1 °F 74% 30.17 in 10.0 mi NNW 8.1 mph - N/A   Overcast
11:53 AM 53.1 °F - 44.1 °F 71% 30.15 in 10.0 mi North 9.2 mph - N/A   Overcast
12:53 PM 57.9 °F - 44.1 °F 60% 30.12 in 10.0 mi North 8.1 mph - N/A   Mostly Cloudy
1:53 PM 59.0 °F - 43.0 °F 55% 30.09 in 10.0 mi North 8.1 mph - N/A   Partly Cloudy
2:53 PM 62.1 °F - 44.1 °F 52% 30.07 in 10.0 mi North 9.2 mph - N/A   Mostly Cloudy
3:53 PM 61.0 °F - 43.0 °F 52% 30.07 in 10.0 mi NNW 4.6 mph - N/A   Overcast
4:53 PM 61.0 °F - 43.0 °F 52% 30.06 in 10.0 mi NE 5.8 mph - N/A   Overcast
5:53 PM 62.1 °F - 43.0 °F 50% 30.06 in 10.0 mi Calm Calm - N/A   Partly Cloudy
6:53 PM 60.1 °F - 44.1 °F 55% 30.08 in 10.0 mi East 6.9 mph - N/A   Overcast
7:53 PM 57.9 °F - 45.0 °F 62% 30.09 in 10.0 mi ESE 4.6 mph - N/A   Mostly Cloudy
8:53 PM 55.0 °F - 46.0 °F 72% 30.11 in 10.0 mi SE 4.6 mph - N/A   Overcast
9:53 PM 55.0 °F - 45.0 °F 69% 30.11 in 10.0 mi South 5.8 mph - N/A   Mostly Cloudy
10:53 PM 54.0 °F - 46.0 °F 75% 30.11 in 10.0 mi South 6.9 mph - N/A   Overcast
11:53 PM 52.0 °F - 46.9 °F 83% 30.10 in 10.0 mi SSW 5.8 mph - N/A   Scattered Clouds